Skip Page Navigation
NASA JPL Caltech
NASA Logo - Jet Propulsion Laboratory + View the NASA Portal
+ Center for Near-Earth Object Studies
JPL Home Earth Solar System Stars & Galaxies Technology
JPL Solar System Dynamics
BODIES ORBITS EPHEMERIDES TOOLS PHYSICAL DATA DISCOVERY FAQ SITE MAP
JPL Small-Body Database Browser
Search: [ help ]  
351799 (2006 JT45)
Classification: Main-belt Asteroid          SPK-ID: 2351799
Ephemeris | Orbit Diagram | Orbital Elements | Mission Design | Physical Parameters | Discovery Circumstances | Close-Approach Data ]

[ show orbit diagram ]
Orbital Elements at Epoch 2459000.5 (2020-May-31.0) TDB
Reference: JPL 10 (heliocentric ecliptic J2000)
 Element Value Uncertainty (1-sigma)   Units 
e .09776461345918291 7.6925e-08  
a 2.666888124903198 3.2743e-08 au
q 2.406160838233152 2.051e-07 au
i 16.94919678299031 8.3593e-06 deg
node 264.8886601027955 2.2854e-05 deg
peri 330.8975674120689 5.1284e-05 deg
M 122.7415434172171 4.6801e-05 deg
tp 2458458.131195164256
(2018-Dec-05.63119516)
0.00020806 TDB
period 1590.763520686504
4.36
2.9296e-05
8.021e-08
d
yr
n .2263064216135907 4.1678e-09 deg/d
Q 2.927615411573245 3.5944e-08 au
  Orbit Determination Parameters
   # obs. used (total)      185  
   data-arc span      6216 days (17.02 yr)  
   first obs. used      2002-08-14  
   last obs. used      2019-08-21  
   planetary ephem.      DE431  
   SB-pert. ephem.      SB431-N16  
   condition code      0  
   norm. resid. RMS      .53754  
   source      ORB  
   producer      Otto Matic  
   solution date      2019-Sep-24 06:37:19  

Additional Information
 Earth MOID = 1.40351 au 
 Jupiter MOID = 2.16579 au 
 T_jup = 3.314 
[ show covariance matrix ]

Ephemeris | Orbit Diagram | Orbital Elements | Mission Design | Physical Parameters | Discovery Circumstances | Close-Approach Data ]

Physical Parameter Table
Parameter Symbol Value Units Sigma Reference Notes
absolute magnitude H 15.7   n/a MPO434219  

351799 (2006 JT45)          Discovered 2006-May-08 by Mt. Lemmon Survey at Mount Lemmon
Reference: 20130127/Numbers.arcLast Updated: 2013-01-31

[ hide close-approach data ]
Close-Approach Data   ...sorted by Date/Time (TDB)
Date/Time (TDB) Time Uncertainty
(days_HH:MM)
Body Nominal Distance (au) Minimum Distance (au) Maximum Distance (au) V-relative (km/s) V-infinity (km/s) JD (TDB) Time Uncertainty (minutes) Semi-major axis (km) Semi-minor axis (km) range-LOV angle (deg) N-sigma BP Orbit Ref. Reference Modified
2036-Aug-14 12:51 00:02 Thisb 0.043172922260203 0.0431465801344453 0.0431992662310634 4.98192776489242 4.98192773319194 2464920.035390419 1.86910360391797 1387.07522884966 126.403819086914 18.8754250282791 17099.9124883557 T 10 CATAB v2.0f-lin.ifort 2019-Sep-24 06:37:21 2019-Sep-24 06:37

Alternate Designations
 2006 JT45 = 2003 YG173 
Ephemeris | Orbit Diagram | Orbital Elements | Mission Design | Physical Parameters | Discovery Circumstances | Close-Approach Data ]
ABOUT SSD CREDITS/AWARDS PRIVACY/COPYRIGHT GLOSSARY LINKS
FirstGov 2020-Aug-11 10:56 UT
(server date/time)  
NASA Home Page
Site Manager:   Ryan S. Park
Webmaster  Alan B. Chamberlin